Dewpoint
69 71 71 71 71 71 71 70 70 69 69 69 70 70 70 69 69 69 68 67 66 67 65 65 64 63 64 64 65 64 65 65 65 65 65 65 65 65 66 65 65 62 65
69 70 70 71 71 71 70 70 70 69 70 70 70 70 69 69 68 68 67 66 67 67 65 65 65 64 64 64 64 64 63 65 65 64 63 62 63 64 65 65 66 64 65
69 69 68 69 69 68 69 70 70 69 70 70 70 69 69 69 68 67 66 66 67 67 65 65 65 65 65 66 65 63 63 63 63 63 62 58 58 62 63 63 63 63 64
64 65 66 67 67 67 67 69 69 69 70 70 70 69 69 68 68 67 66 66 67 67 65 64 64 64 64 65 65 63 62 62 61 60 56 56 56 61 61 61 60 60 61
63 67 67 65 65 66 67 69 69 69 69 70 69 69 69 68 67 66 65 66 66 66 63 63 62 63 65 65 64 62 61 60 60 57 55 56 56 58 61 60 59 60 58
63 67 67 66 64 67 67 69 68 69 69 69 69 68 68 68 67 66 64 65 66 65 62 60 62 64 64 64 63 62 61 60 58 54 55 57 55 59 59 58 58 57 58
62 64 67 67 67 68 69 67 68 69 69 69 69 67 68 68 67 66 65 65 65 65 62 61 63 65 64 63 62 61 61 58 54 54 54 55 55 59 59 58 57 57 57
64 66 64 67 67 67 67 67 66 67 68 69 68 67 67 67 66 66 65 65 65 64 63 62 64 64 63 62 61 61 60 58 54 54 54 54 57 58 58 57 57 56 56
65 66 66 66 66 65 63 62 62 65 67 67 67 67 67 67 66 66 65 65 63 62 62 61 62 62 63 62 61 60 59 57 53 53 53 54 58 58 58 57 56 56 55
65 64 65 65 65 63 62 62 63 65 67 66 66 67 67 66 66 65 64 63 63 62 62 61 61 62 63 62 60 60 59 57 53 53 54 56 58 57 57 56 56 55 54
64 64 65 64 63 62 61 61 63 65 67 67 67 67 65 64 63 62 63 63 62 62 62 60 59 61 62 61 60 59 56 53 54 54 56 60 57 57 56 56 55 54 54
62 62 62 62 61 61 60 60 62 64 65 66 66 66 65 63 61 61 62 62 62 62 61 60 59 56 53 53 56 56 54 55 55 56 57 60 57 57 56 55 54 53 53
61 62 61 60 60 58 56 58 60 63 64 61 61 62 62 62 61 60 59 58 59 58 54 52 50 50 46 49 50 52 54 55 55 56 59 60 58 56 56 55 55 54 54
59 60 60 59 58 58 57 55 59 61 60 61 61 62 61 60 58 58 57 57 56 54 51 51 52 50 47 44 46 48 50 51 52 54 58 59 60 56 56 56 56 55 54
58 59 60 60 59 57 56 58 61 59 58 59 60 61 59 56 56 57 56 55 53 52 50 49 51 48 47 44 40 43 44 45 46 48 51 57 58 59 55 55 55 56 55
57 58 59 59 60 59 60 61 59 57 58 59 59 58 56 55 56 55 55 54 52 51 50 51 52 48 47 42 39 38 41 41 41 41 44 47 53 56 57 57 56 56 55
57 57 57 57 57 57 58 58 59 57 57 57 56 57 55 55 54 55 56 56 54 53 50 53 51 49 46 43 38 38 39 41 42 40 42 45 49 52 52 54 57 57 56
56 56 57 58 56 57 57 58 56 56 57 56 57 57 57 56 55 56 57 56 56 55 53 53 52 50 48 46 40 38 37 37 40 41 42 44 46 48 53 54 56 54 57
56 56 56 56 55 54 54 54 54 55 55 56 58 58 58 57 57 56 58 58 58 57 55 54 52 51 49 47 43 39 38 38 36 37 42 43 44 48 48 55 57 58 58
54 55 55 55 55 54 54 55 55 53 54 55 55 56 58 59 59 58 58 58 59 58 56 54 52 51 50 47 44 40 39 39 38 37 39 43 43 46 48 49 51 51 54
52 53 53 54 55 55 51 53 52 51 51 52 54 54 56 57 57 58 58 58 58 56 55 54 52 51 49 46 41 39 40 40 40 39 38 41 39 44 47 47 47 46 48
52 52 53 53 53 54 51 49 50 49 50 52 52 53 54 55 57 57 58 58 58 56 54 54 52 50 49 44 41 41 37 40 43 42 40 38 38 40 44 44 44 43 41
52 52 52 52 52 52 52 51 49 48 49 51 51 53 53 54 56 57 57 57 56 56 55 54 53 50 50 45 44 44 42 41 40 41 42 41 39 38 39 39 41 39 38
51 52 51 51 51 51 53 52 49 46 45 48 51 52 53 54 55 57 58 57 57 57 55 55 54 52 51 48 47 47 45 45 41 41 42 42 43 40 38 38 37 36 36
51 51 52 51 50 50 51 52 50 47 46 47 51 52 52 54 55 57 58 57 57 57 57 56 54 52 51 51 50 48 47 45 46 45 39 40 42 42 42 40 39 39 36
51 51 51 51 51 49 50 52 52 48 47 49 51 52 53 53 55 57 58 58 58 57 56 56 56 54 53 53 50 49 49 48 46 44 42 41 39 39 37 40 40 40 40
Lifted_Index
-8 -8 -7 -7 -6 -6 -5 -4 -4 -3 -4 -4 -4 -4 -3 -2 -1 -1 0 1 1 1 1 2 2 2 3 3 2 2 2 2 2 2 2 1 1 1 0 0 0 1 0
-7 -7 -7 -6 -6 -5 -5 -4 -4 -4 -4 -4 -4 -4 -3 -2 -1 -1 0 1 1 1 1 2 2 2 2 2 2 2 2 2 2 2 2 2 2 2 1 1 1 1 1
-7 -7 -6 -5 -4 -4 -4 -4 -4 -4 -4 -5 -5 -4 -3 -2 -1 -1 0 0 0 0 1 1 1 1 1 1 2 2 3 3 3 3 3 3 3 3 2 2 2 2 2
-6 -5 -5 -4 -3 -2 -2 -3 -4 -4 -4 -5 -5 -4 -3 -2 -2 -1 -0 -0 -0 0 1 1 1 1 1 1 2 3 3 3 4 4 4 4 4 4 3 3 3 4 4
-5 -5 -5 -3 -2 -2 -2 -3 -4 -4 -4 -5 -5 -4 -3 -3 -2 -1 -0 -0 -0 0 1 2 2 2 1 1 2 3 4 4 4 4 4 4 4 4 4 4 4 5 5
-5 -5 -5 -3 -2 -2 -3 -3 -4 -4 -4 -4 -4 -4 -3 -3 -2 -1 -0 -0 -0 1 2 3 2 2 1 2 3 3 4 4 5 5 5 5 5 4 5 5 5 6 6
-4 -5 -5 -4 -3 -3 -3 -3 -3 -3 -3 -4 -4 -4 -3 -3 -2 -1 -0 -0 0 1 2 3 2 1 1 2 3 3 4 5 5 5 5 5 5 5 5 5 6 6 6
-4 -4 -4 -4 -3 -3 -2 -1 -0 -2 -3 -3 -3 -3 -3 -3 -2 -1 -1 0 1 2 3 3 2 1 2 2 3 3 4 5 5 5 5 5 5 5 5 6 6 6 7
-4 -4 -4 -3 -3 -2 0 2 2 -0 -2 -3 -3 -3 -3 -3 -2 -1 -0 1 2 3 3 3 2 2 2 3 3 4 4 5 5 5 5 5 5 5 5 6 6 7 7
-3 -3 -2 -2 -2 -1 1 3 2 -0 -2 -2 -3 -3 -3 -2 -1 -0 1 2 3 3 3 3 3 2 3 3 4 4 5 5 5 5 5 5 5 5 6 6 7 7 8
-2 -2 -1 -1 -1 -0 1 2 2 -0 -2 -2 -2 -2 -2 -1 -0 1 2 2 3 3 4 4 4 4 3 4 4 5 5 6 5 5 4 4 4 5 6 6 7 8 8
-1 -1 -1 -1 -0 0 1 2 1 0 -1 -1 -2 -2 -1 0 1 2 2 3 4 4 5 5 6 5 5 4 5 5 6 5 5 4 4 4 4 5 6 6 7 8 8
-0 -1 -1 -1 -0 1 2 3 2 1 0 -0 -1 -1 0 1 2 3 3 4 5 5 6 6 6 6 5 5 5 6 6 5 5 4 4 4 4 5 5 6 6 7 7
-0 -1 -1 -0 0 1 2 3 2 2 1 1 0 0 1 2 3 4 4 5 5 5 5 5 5 5 4 5 6 6 6 6 6 5 4 4 4 4 5 5 6 6 7
-0 -1 -1 -0 1 1 2 2 2 1 2 1 1 1 2 4 5 5 5 5 5 4 4 4 4 4 4 4 5 6 7 7 7 7 6 5 5 5 5 5 5 6 6
0 -0 -0 -0 1 1 2 2 1 2 2 1 1 2 4 5 5 5 5 4 4 3 3 3 3 3 3 3 4 6 7 8 8 8 7 7 6 6 5 5 5 5 5
0 0 0 0 1 1 1 2 2 2 2 2 2 3 4 5 5 5 4 4 3 3 2 2 1 2 2 2 3 5 7 7 7 8 8 7 7 7 7 6 5 5 5
1 1 0 0 1 2 2 2 3 3 4 4 3 4 4 5 5 4 4 3 2 1 1 0 0 1 2 2 2 4 5 6 7 8 8 7 7 8 8 7 6 5 4
2 1 1 1 1 2 2 3 3 4 4 4 4 3 4 4 4 3 2 1 1 0 -0 -0 0 1 1 1 2 3 4 5 6 8 8 7 7 7 8 7 6 5 5
3 3 2 2 2 3 3 4 3 3 3 3 3 3 3 2 2 1 1 0 -0 -0 -0 -0 0 0 1 1 1 2 3 5 6 7 8 8 7 7 7 7 7 7 6
3 3 3 3 4 4 5 4 3 3 3 4 4 3 3 2 1 0 -0 -0 -1 -0 -0 -0 0 0 1 1 1 2 3 4 5 6 8 8 7 6 7 8 8 9 9
3 3 3 3 4 5 6 5 4 3 3 4 4 4 3 3 2 1 0 -0 -0 -0 -0 -0 0 0 1 1 1 1 2 2 3 5 7 7 7 6 7 8 8 9 10
3 3 3 3 3 4 5 5 5 5 5 5 5 4 4 3 2 2 1 0 -0 -0 -0 -0 -0 0 0 1 1 1 1 2 2 3 5 6 7 7 7 8 8 9 10
3 3 3 3 3 4 4 5 5 6 6 5 5 4 4 3 3 2 1 1 0 -0 -0 -0 -0 -0 0 1 1 1 1 1 2 3 4 5 6 7 7 8 9 9 10
4 4 4 3 3 3 4 4 5 5 5 5 5 4 4 3 2 2 1 1 0 -0 -0 -0 -0 -0 0 0 1 1 1 1 2 2 3 4 5 6 7 8 8 9 9
4 4 4 3 3 3 4 4 5 5 5 5 5 4 4 2 2 1 1 1 0 -0 -0 -0 -0 -0 0 0 0 0 0 1 1 2 3 4 5 6 7 8 8 8 9